Location: Tucson
(32.2217°N, 110.9265°W)
Time: 08:03:47
(UTC-07:00)

ISS - Visible Passes

Search period start: 02 December 2023 00:00
Search period end: 12 December 2023 00:00
Orbit: 415 x 417 km, 51.6° (Epoch: 02 December)

Date Brightness Start Highest point End Pass type
(mag) Time Alt. Az. Time Alt. Az. Time Alt. Az.
02 Dec -1.5 18:52:13 10° NNW 18:53:04 15° N 18:53:04 15° N visible
03 Dec -1.9 18:04:18 10° N 18:06:23 15° NNE 18:07:13 14° NE visible
03 Dec -0.5 19:40:04 10° WNW 19:40:11 11° WNW 19:40:11 11° WNW visible
04 Dec -3.9 18:51:26 10° NW 18:54:38 78° N 18:54:38 78° N visible
05 Dec -3.3 18:02:58 10° NNW 18:06:08 40° NE 18:09:17 10° ESE visible
05 Dec -0.6 19:40:51 10° W 19:42:31 13° SW 19:42:31 13° SW visible
06 Dec -1.5 18:51:12 10° WNW 18:54:03 26° SW 18:56:53 10° S visible
07 Dec -2.9 18:02:09 10° NW 18:05:25 54° SW 18:08:39 10° SSE visible
09 Dec -0.5 18:02:13 10° W 18:04:15 15° SW 18:06:15 10° SSW visible
